Weather History for Rockland, ME

Change the Weather History Date:

Friday, March 1, 2013

  Actual Average Record
Temperature  
Mean Temperature 32 °F -  
Max Temperature 33 °F 33 °F 46 °F (1999)
Min Temperature 32 °F 20 °F 3 °F (2014)
Degree Days  
Heating Degree Days 32    
Moisture  
Dew Point 30 °F    
Average Humidity 88    
Maximum Humidity 93    
Minimum Humidity 81    
Precipitation  
Precipitation 0.00 in - - ()
Sea Level Pressure  
Sea Level Pressure 29.58 in    
Wind  
Wind Speed 6 mph (North)    
Max Wind Speed 13 mph    
Max Gust Speed 21 mph    
Visibility 6 miles    
Events      
Averages and records for this station are not official NWS values.
T = Trace of Precipitation, MM = Missing Value Source: NWS Daily Summary

Daily Weather History Graph

Daily Weather History Graph

Search for Another Location

Airport:

Trip Planner

Search our weather history database for the weather conditions in past years. The results will help you decide how hot, cold, wet, or windy it might be!

Date:

Astronomy

Mar. 01, 2013 Rise Set
Actual Time 6:12 AM EST 5:25 PM EST
Civil Twilight 5:44 AM EST 5:54 PM EST
Nautical Twilight 5:10 AM EST 6:27 PM EST
Astronomical Twilight 4:37 AM EST 7:01 PM EST
Moon 10:06 PM EST (3/1) 7:47 AM EST (3/1)
Length of Visible Light 12h 10m
Length of Day
11h 12m
Waning Gibbous, 83% of the Moon is Illuminated
Mar 1
Waning Gibbous
Mar 4
Last Quarter
Mar 11
New
Mar 19
First Quarter
Mar 27
Full

Hourly Weather History & Observations

Time (EST) Temp. Windchill Dew Point Humidity Pressure Visibility Wind Dir Wind Speed Gust Speed Precip Events Conditions
12:35 AM 33.8 °F 28.6 °F 30.2 °F 87% 29.50 in 9.0 mi North 5.8 mph - N/A   Overcast
12:55 AM 33.8 °F 28.6 °F 30.2 °F 87% 29.50 in 8.0 mi North 5.8 mph - N/A   Overcast
1:15 AM 33.8 °F 28.6 °F 30.2 °F 87% 29.50 in 9.0 mi North 5.8 mph - N/A   Overcast
1:35 AM 33.8 °F 29.6 °F 30.2 °F 87% 29.50 in 9.0 mi NNW 4.6 mph - N/A   Overcast
1:55 AM 33.8 °F 29.6 °F 30.2 °F 87% 29.49 in 10.0 mi North 4.6 mph - N/A   Overcast
2:15 AM 33.8 °F 30.8 °F 30.2 °F 87% 29.49 in 10.0 mi North 3.5 mph - N/A   Overcast
2:35 AM 33.8 °F 29.6 °F 30.2 °F 87% 29.49 in 10.0 mi North 4.6 mph - N/A   Overcast
3:15 AM 33.8 °F 29.6 °F 30.2 °F 87% 29.50 in 10.0 mi North 4.6 mph - N/A   Overcast
3:35 AM 33.8 °F 28.6 °F 30.2 °F 87% 29.50 in 10.0 mi North 5.8 mph - N/A   Overcast
4:15 AM 33.8 °F 29.6 °F 30.2 °F 87% 29.51 in 7.0 mi North 4.6 mph - N/A   Overcast
4:55 AM 33.8 °F 28.6 °F 30.2 °F 87% 29.52 in 10.0 mi North 5.8 mph - N/A   Overcast
5:15 AM 33.8 °F 29.6 °F 30.2 °F 87% 29.52 in 10.0 mi NNE 4.6 mph - N/A   Overcast
5:35 AM 33.8 °F 26.4 °F 30.2 °F 87% 29.53 in 10.0 mi NNE 9.2 mph - N/A   Overcast
5:55 AM 33.8 °F 27.0 °F 30.2 °F 87% 29.53 in 7.0 mi NNE 8.1 mph - N/A   Overcast
6:15 AM 32.0 °F 24.2 °F 30.2 °F 93% 29.53 in 2.0 mi North 9.2 mph - N/A   Overcast
6:35 AM 32.0 °F 24.8 °F 30.2 °F 93% 29.54 in 1.2 mi North 8.1 mph 16.1 mph N/A   Overcast
7:15 AM 32.0 °F 24.2 °F 30.2 °F 93% 29.55 in 5.0 mi NNE 9.2 mph 18.4 mph N/A   Mostly Cloudy
7:35 AM 32.0 °F 23.6 °F 30.2 °F 93% 29.56 in 5.0 mi NNE 10.4 mph 18.4 mph N/A   Overcast
7:55 AM 32.0 °F 24.8 °F 30.2 °F 93% 29.56 in 9.0 mi NNE 8.1 mph - N/A   Overcast
8:35 AM 33.8 °F 26.4 °F 28.4 °F 81% 29.56 in 10.0 mi North 9.2 mph 18.4 mph N/A   Overcast
9:15 AM 32.0 °F 23.0 °F 28.4 °F 87% 29.57 in 10.0 mi NNE 11.5 mph 20.7 mph N/A   Overcast
9:35 AM 32.0 °F 24.2 °F 28.4 °F 87% 29.57 in 10.0 mi North 9.2 mph 16.1 mph N/A   Overcast
10:15 AM 32.0 °F 23.0 °F 28.4 °F 87% 29.57 in 9.0 mi NNE 11.5 mph 18.4 mph N/A   Overcast
10:35 AM 33.8 °F 24.8 °F 28.4 °F 81% 29.58 in 10.0 mi NNE 12.7 mph 19.6 mph N/A   Overcast
10:55 AM 33.8 °F 25.8 °F 28.4 °F 81% 29.58 in 10.0 mi NNE 10.4 mph 17.3 mph N/A   Overcast
11:15 AM 33.8 °F 27.0 °F 28.4 °F 81% 29.58 in 8.0 mi North 8.1 mph - N/A   Overcast
11:35 AM 32.0 °F 25.6 °F 28.4 °F 87% 29.59 in 2.5 mi NNE 6.9 mph 17.3 mph N/A   Overcast
11:55 AM 32.0 °F 25.6 °F 28.4 °F 87% 29.59 in 1.5 mi North 6.9 mph - N/A   Overcast
12:15 PM 32.0 °F 23.6 °F 30.2 °F 93% 29.59 in 2.0 mi NNE 10.4 mph - N/A   Overcast
12:35 PM 33.8 °F 27.7 °F 28.4 °F 81% 29.59 in 2.0 mi North 6.9 mph - N/A   Overcast
1:15 PM 33.8 °F 27.0 °F 30.2 °F 87% 29.59 in 1.0 mi North 8.1 mph - N/A   Overcast
1:35 PM 33.8 °F 28.6 °F 30.2 °F 87% 29.59 in 1.8 mi North 5.8 mph - N/A   Overcast
1:55 PM 33.8 °F 29.6 °F 30.2 °F 87% 29.58 in 8.0 mi North 4.6 mph - N/A   Overcast
2:15 PM 33.8 °F 28.6 °F 30.2 °F 87% 29.58 in 1.8 mi North 5.8 mph - N/A   Overcast
2:35 PM 33.8 °F 27.7 °F 30.2 °F 87% 29.58 in 1.2 mi North 6.9 mph - N/A   Overcast
2:55 PM 33.8 °F 28.6 °F 30.2 °F 87% 29.58 in 4.0 mi North 5.8 mph - N/A   Overcast
3:15 PM 33.8 °F 28.6 °F 30.2 °F 87% 29.59 in 9.0 mi North 5.8 mph - N/A   Overcast
3:35 PM 33.8 °F 28.6 °F 30.2 °F 87% 29.59 in 9.0 mi North 5.8 mph - N/A   Overcast
3:55 PM 33.8 °F 28.6 °F 30.2 °F 87% 29.59 in 10.0 mi North 5.8 mph - N/A   Overcast
4:15 PM 33.8 °F 30.8 °F 30.2 °F 87% 29.60 in 2.0 mi NNW 3.5 mph - N/A   Overcast
4:35 PM 33.8 °F 28.6 °F 30.2 °F 87% 29.60 in 4.0 mi North 5.8 mph - N/A   Overcast
4:55 PM 33.8 °F 28.6 °F 30.2 °F 87% 29.61 in 5.0 mi North 5.8 mph - N/A   Overcast
5:15 PM 33.8 °F 28.6 °F 30.2 °F 87% 29.61 in 5.0 mi North 5.8 mph - N/A   Mostly Cloudy
5:35 PM 33.8 °F 28.6 °F 30.2 °F 87% 29.62 in 10.0 mi North 5.8 mph - N/A   Mostly Cloudy
5:55 PM 33.8 °F 30.8 °F 30.2 °F 87% 29.62 in 4.0 mi North 3.5 mph - N/A   Mostly Cloudy
6:15 PM 33.8 °F 27.7 °F 30.2 °F 87% 29.63 in 7.0 mi North 6.9 mph - N/A   Overcast
6:35 PM 33.8 °F 28.6 °F 30.2 °F 87% 29.63 in 10.0 mi North 5.8 mph - N/A   Mostly Cloudy
6:55 PM 33.8 °F 29.6 °F 30.2 °F 87% 29.63 in 10.0 mi North 4.6 mph - N/A   Mostly Cloudy
7:15 PM 32.0 °F - 30.2 °F 93% 29.63 in 4.0 mi Calm Calm - N/A   Overcast
7:35 PM 32.0 °F 27.5 °F 30.2 °F 93% 29.63 in 2.5 mi North 4.6 mph - N/A   Overcast
7:55 PM 33.8 °F 29.6 °F 30.2 °F 87% 29.62 in 4.0 mi NNW 4.6 mph - N/A   Overcast
8:15 PM 33.8 °F 29.6 °F 30.2 °F 87% 29.63 in 2.5 mi NNW 4.6 mph - N/A   Overcast
8:35 PM 33.8 °F 29.6 °F 30.2 °F 87% 29.62 in 9.0 mi NNW 4.6 mph - N/A   Overcast
8:55 PM 33.8 °F 29.6 °F 30.2 °F 87% 29.62 in 5.0 mi NW 4.6 mph - N/A   Overcast
9:15 PM 33.8 °F 30.8 °F 30.2 °F 87% 29.62 in 4.0 mi NNW 3.5 mph - N/A   Overcast
9:35 PM 33.8 °F 29.6 °F 30.2 °F 87% 29.62 in 5.0 mi NNW 4.6 mph - N/A   Overcast
9:55 PM 32.0 °F 27.5 °F 30.2 °F 93% 29.62 in 4.0 mi West 4.6 mph - N/A   Overcast
10:15 PM 32.0 °F 28.7 °F 30.2 °F 93% 29.62 in 2.5 mi NW 3.5 mph - N/A   Overcast
10:35 PM 32.0 °F - 30.2 °F 93% 29.61 in 2.5 mi Calm Calm - N/A   Overcast
10:55 PM 32.0 °F - 30.2 °F 93% 29.61 in 3.0 mi Calm Calm - N/A   Overcast
11:15 PM 32.0 °F - 30.2 °F 93% 29.61 in 5.0 mi Calm Calm - N/A   Overcast
11:35 PM 32.0 °F - 30.2 °F 93% 29.60 in 5.0 mi Calm Calm - N/A   Overcast
11:55 PM 32.0 °F - 30.2 °F 93% 29.60 in 5.0 mi Calm Calm - N/A   Overcast